DW1024 Weather Reports


time (UTC)temp
C
wind
direction
speed
KPH
gust
KPH
rain 1hr
cm
rain 24hr
cm
rain mn
cm
humidity
%
barometer
mb
20260901080453 21 26 1.6 6.4 0.00 0.00 0.00 60 1023.4
20260901074953 21 271 1.6 11.3 0.00 0.00 0.00 64 1023.5
20260901073455 20 167 3.2 6.4 0.00 0.00 0.00 66 1023.5
20260901071953 19 230 1.6 6.4 0.00 0.00 0.00 68 1023.5
20260901064953 17 298 1.6 6.4 0.00 0.00 0.00 75 1023.5
20260901063454 16 198 1.6 6.4 0.00 0.00 0.00 78 1023.4
20260901054953 14 234 0.0 3.2 0.00 0.00 0.00 84 1023.5
20260901051951 13 234 0.0 1.6 0.00 0.00 0.00 86 1023.3
20260901050450 12 234 0.0 1.6 0.00 0.00 0.00 88 1023.1
20260901044950 12 234 0.0 0.0 0.00 0.00 0.00 88 1023.0
20260901043447 12 234 0.0 0.0 0.00 0.00 0.00 88 1023.0
20260901041948 12 234 0.0 0.0 0.00 0.00 0.00 86 1023.0
20260901040447 12 234 0.0 0.0 0.00 0.00 0.00 84 1023.0
20260901033447 14 234 0.0 3.2 0.00 0.00 0.00 79 1022.9
20260901030445 15 219 1.6 4.8 0.00 0.00 0.00 77 1023.0
20260901024946 15 225 1.6 6.4 0.00 0.00 0.00 78 1023.1
20260901023443 15 180 0.0 1.6 0.00 0.00 0.00 78 1023.2
20260901021942 15 180 0.0 1.6 0.00 0.00 0.00 77 1023.1
20260901014945 15 215 0.0 3.2 0.00 0.00 0.00 80 1022.8
20260901013444 15 215 0.0 1.6 0.00 0.00 0.00 80 1022.8
20260901011947 15 215 0.0 3.2 0.00 0.00 0.00 79 1022.8
20260901010445 15 227 0.0 3.2 0.00 0.00 0.00 79 1022.8
20260901004939 15 227 0.0 1.6 0.00 0.00 0.00 79 1022.8
20260901003437 15 227 0.0 0.0 0.00 0.00 0.00 82 1022.7
20260901001936 15 227 0.0 3.2 0.00 0.00 0.00 81 1022.9
20260901000436 15 272 0.0 1.6 0.00 0.00 0.00 80 1022.9
20260831234938 15 272 0.0 4.8 0.00 0.00 0.00 77 1022.8
20260831233436 14 272 0.0 1.6 0.00 0.00 0.00 78 1022.8
20260831231937 15 272 0.0 0.0 0.00 0.00 0.00 77 1022.9
20260831230436 15 272 0.0 4.8 0.00 0.00 0.00 76 1022.9
20260831224938 15 272 0.0 3.2 0.00 0.00 0.00 75 1022.9
20260831223436 15 272 0.0 3.2 0.00 0.00 0.00 75 1022.9
20260831220436 16 272 0.0 4.8 0.00 0.00 0.00 74 1022.8
20260831213433 17 211 3.2 12.9 0.00 0.00 0.00 71 1022.5
20260831211932 16 248 0.0 0.0 0.00 0.00 0.00 74 1022.3
20260831210430 17 248 0.0 0.0 0.00 0.00 0.00 73 1022.1
20260831204930 16 248 0.0 0.0 0.00 0.00 0.00 75 1022.0
20260831203432 17 248 0.0 0.0 0.00 0.00 0.00 76 1021.7
20260831201928 17 248 0.0 0.0 0.00 0.00 0.00 73 1021.4
20260831200428 18 248 1.6 4.8 0.00 0.00 0.00 71 1021.2
20260831194928 18 249 1.6 4.8 0.00 0.00 0.00 71 1021.1
20260831193424 18 257 1.6 8.0 0.00 0.00 0.00 70 1020.9
20260831190427 18 231 0.0 3.2 0.00 0.00 0.00 68 1020.5
20260831184921 18 227 0.0 3.2 0.00 0.00 0.00 66 1020.4
20260831181922 20 219 0.0 3.2 0.00 0.00 0.00 64 1019.6
20260831180420 20 219 1.6 6.4 0.00 0.00 0.00 61 1019.3
20260831174922 21 246 1.6 6.4 0.00 0.00 0.00 59 1019.2
20260831173422 21 229 1.6 6.4 0.00 0.00 0.00 58 1019.1
20260831171916 22 249 3.2 12.9 0.00 0.00 0.00 55 1019.1
20260831170418 22 273 4.8 12.9 0.00 0.00 0.00 55 1018.9
20260831164918 22 162 4.8 19.3 0.00 0.00 0.00 54 1018.6
20260831163416 23 264 3.2 12.9 0.00 0.00 0.00 51 1018.7
20260831160413 23 297 4.8 14.5 0.00 0.00 0.00 49 1018.4
20260831154912 23 238 3.2 14.5 0.00 0.00 0.00 50 1018.4
20260831150410 23 277 6.4 17.7 0.00 0.00 0.00 48 1018.7
20260831144914 23 323 4.8 16.1 0.00 0.00 0.00 47 1018.9
20260831143410 24 294 8.0 22.5 0.00 0.00 0.00 46 1018.9
20260831141911 25 324 8.0 24.1 0.00 0.00 0.00 42 1018.9
20260831140411 25 257 8.0 24.1 0.00 0.00 0.00 44 1019.0
20260831134910 25 194 9.7 25.7 0.00 0.00 0.00 44 1018.7
20260831133711 25 283 11.3 30.6 0.00 0.00 0.00 44 1018.9
20260831133039 25 276 9.7 24.1 0.00 0.00 0.00 48 1018.9
20260831130408 24 267 11.3 25.7 0.00 0.00 0.00 54 1019.1
20260831124911 25 271 6.4 25.7 0.00 0.00 0.00 50 1019.1
20260831123404 24 283 9.7 27.4 0.00 0.00 0.00 54 1019.1
20260831114906 25 259 8.0 19.3 0.00 0.00 0.00 55 1019.1
20260831113406 24 281 9.7 25.7 0.00 0.00 0.00 55 1019.1
20260831111907 25 276 8.0 20.9 0.00 0.00 0.00 56 1019.1
20260831110407 24 236 8.0 22.5 0.00 0.00 0.00 56 1019.2
20260831104907 25 209 4.8 20.9 0.00 0.00 0.00 56 1019.1
20260831103402 25 230 6.4 19.3 0.00 0.00 0.00 59 1019.1
20260831101902 24 145 8.0 19.3 0.00 0.00 0.00 59 1019.1
20260831100402 23 261 6.4 19.3 0.00 0.00 0.00 63 1019.1
20260831094906 23 240 8.0 19.3 0.00 0.00 0.00 61 1019.4
20260831093405 23 162 6.4 24.1 0.00 0.00 0.00 62 1019.5
20260831084904 22 211 4.8 20.9 0.00 0.00 0.00 65 1019.5
20260831083402 22 190 8.0 25.7 0.00 0.00 0.00 64 1019.3
20260831081905 22 255 6.4 17.7 0.00 0.00 0.00 64 1019.3